owner,sensor,date,latitude,longitude,vertical_datum,wind_speed,wind_to_direction,wind_speed_of_gust,qcFlag 
TCOON,ioos:station:TCOON:006:1,2012-11-01T00:00:00Z,27.8217,-97.2040,0.0,2.1,82.0,2.7,'11111222,11111222,11111222' 
TCOON,ioos:station:TCOON:006:1,2012-11-01T01:00:00Z,27.8217,-97.2040,0.0,2.6,88.0,3.3,'11111222,11111222,11111222' 
TCOON,ioos:station:TCOON:006:1,2012-11-01T02:00:00Z,27.8217,-97.2040,0.0,2.0,123.0,2.6,'11111222,11111222,11111222' 
TCOON,ioos:station:TCOON:006:1,2012-11-01T03:00:00Z,27.8217,-97.2040,0.0,1.3,162.0,2.1,'11111222,11111222,11111222' 
TCOON,ioos:station:TCOON:006:1,2012-11-01T04:00:00Z,27.8217,-97.2040,0.0,1.1,153.0,1.8,'11111222,11111222,11111222' 
TCOON,ioos:station:TCOON:006:1,2012-11-01T05:00:00Z,27.8217,-97.2040,0.0,0.5,156.0,1.4,'11111222,11111222,11111222' 
TCOON,ioos:station:TCOON:006:1,2012-11-01T06:00:00Z,27.8217,-97.2040,0.0,1.8,151.0,2.6,'11111222,11111222,11111222' 
TCOON,ioos:station:TCOON:006:1,2012-11-01T07:00:00Z,27.8217,-97.2040,0.0,0.9,146.0,1.9,'11111222,11111222,11111222' 
TCOON,ioos:station:TCOON:006:1,2012-11-01T08:00:00Z,27.8217,-97.2040,0.0,0.8,138.0,1.4,'11111222,11111222,11111222' 
TCOON,ioos:station:TCOON:006:1,2012-11-01T09:00:00Z,27.8217,-97.2040,0.0,0.4,138.0,0.9,'11111222,11111222,11111222' 
TCOON,ioos:station:TCOON:006:1,2012-11-01T10:00:00Z,27.8217,-97.2040,0.0,0.4,109.0,0.6,'11111222,11111222,11111222' 
TCOON,ioos:station:TCOON:006:1,2012-11-01T11:00:00Z,27.8217,-97.2040,0.0,0.5,130.0,0.5,'11111222,11111222,11111222' 
TCOON,ioos:station:TCOON:006:1,2012-11-01T12:00:00Z,27.8217,-97.2040,0.0,1.1,50.0,1.3,'11111222,11111222,11111222' 
TCOON,ioos:station:TCOON:006:1,2012-11-01T13:00:00Z,27.8217,-97.2040,0.0,1.2,45.0,2.0,'11111222,11111222,11111222' 
TCOON,ioos:station:TCOON:006:1,2012-11-01T14:00:00Z,27.8217,-97.2040,0.0,0.8,111.0,1.2,'11111222,11111222,11111222' 
TCOON,ioos:station:TCOON:006:1,2012-11-01T15:00:00Z,27.8217,-97.2040,0.0,1.0,125.0,1.6,'11111222,11111222,11111222' 
TCOON,ioos:station:TCOON:006:1,2012-11-01T16:00:00Z,27.8217,-97.2040,0.0,3.0,159.0,3.7,'11111222,11111222,11111222' 
TCOON,ioos:station:TCOON:006:1,2012-11-01T17:00:00Z,27.8217,-97.2040,0.0,2.9,153.0,5.0,'11111222,11111222,11111222' 
TCOON,ioos:station:TCOON:006:1,2012-11-01T18:00:00Z,27.8217,-97.2040,0.0,2.8,156.0,3.7,'11111222,11111222,11111222' 
TCOON,ioos:station:TCOON:006:1,2012-11-01T19:00:00Z,27.8217,-97.2040,0.0,2.8,104.0,4.3,'11111222,11111222,11111222' 
TCOON,ioos:station:TCOON:006:1,2012-11-01T20:00:00Z,27.8217,-97.2040,0.0,3.8,108.0,4.9,'11111222,11111222,11111222' 
TCOON,ioos:station:TCOON:006:1,2012-11-01T21:00:00Z,27.8217,-97.2040,0.0,2.8,128.0,4.6,'11111222,11111222,11111222' 
TCOON,ioos:station:TCOON:006:1,2012-11-01T22:00:00Z,27.8217,-97.2040,0.0,2.5,121.0,3.3,'11111222,11111222,11111222' 
TCOON,ioos:station:TCOON:006:1,2012-11-01T23:00:00Z,27.8217,-97.2040,0.0,1.9,128.0,2.7,'11111222,11111222,11111222' 
TCOON,ioos:station:TCOON:006:1,2012-11-02T00:00:00Z,27.8217,-97.2040,0.0,1.8,137.0,2.5,'11111222,11111222,11111222' 
TCOON,ioos:station:TCOON:006:1,2012-11-02T01:00:00Z,27.8217,-97.2040,0.0,1.7,97.0,2.7,'11111222,11111222,11111222' 
TCOON,ioos:station:TCOON:006:1,2012-11-02T02:00:00Z,27.8217,-97.2040,0.0,2.2,129.0,3.3,'11111222,11111222,11111222' 
TCOON,ioos:station:TCOON:006:1,2012-11-02T03:00:00Z,27.8217,-97.2040,0.0,2.9,134.0,3.8,'11111222,11111222,11111222' 
TCOON,ioos:station:TCOON:006:1,2012-11-02T05:00:00Z,27.8217,-97.2040,0.0,2.7,148.0,3.8,'11111222,11111222,11111222' 
TCOON,ioos:station:TCOON:006:1,2012-11-02T06:00:00Z,27.8217,-97.2040,0.0,1.9,153.0,2.6,'11111222,11111222,11111222' 
TCOON,ioos:station:TCOON:006:1,2012-11-02T07:00:00Z,27.8217,-97.2040,0.0,2.1,157.0,2.7,'11111222,11111222,11111222' 
TCOON,ioos:station:TCOON:006:1,2012-11-02T08:00:00Z,27.8217,-97.2040,0.0,1.7,150.0,2.3,'11111222,11111222,11111222' 
TCOON,ioos:station:TCOON:006:1,2012-11-02T09:00:00Z,27.8217,-97.2040,0.0,1.1,141.0,2.0,'11111222,11111222,11111222' 
TCOON,ioos:station:TCOON:006:1,2012-11-02T10:00:00Z,27.8217,-97.2040,0.0,1.5,168.0,1.9,'11111222,11111222,11111222' 
TCOON,ioos:station:TCOON:006:1,2012-11-02T12:00:00Z,27.8217,-97.2040,0.0,0.7,210.0,1.2,'11111222,11111222,11111222' 
TCOON,ioos:station:TCOON:006:1,2012-11-02T13:00:00Z,27.8217,-97.2040,0.0,0.7,160.0,0.9,'11111222,11111222,11111222' 
TCOON,ioos:station:TCOON:006:1,2012-11-02T14:00:00Z,27.8217,-97.2040,0.0,1.2,122.0,1.9,'11111222,11111222,11111222' 
TCOON,ioos:station:TCOON:006:1,2012-11-02T15:00:00Z,27.8217,-97.2040,0.0,2.0,113.0,2.3,'11111222,11111222,11111222' 
TCOON,ioos:station:TCOON:006:1,2012-11-02T16:00:00Z,27.8217,-97.2040,0.0,4.2,152.0,5.4,'11111222,11111222,11111222' 
TCOON,ioos:station:TCOON:006:1,2012-11-02T17:00:00Z,27.8217,-97.2040,0.0,3.8,163.0,5.1,'11111222,11111222,11111222' 
TCOON,ioos:station:TCOON:006:1,2012-11-02T18:00:00Z,27.8217,-97.2040,0.0,5.2,161.0,6.1,'11111222,11111222,11111222' 
TCOON,ioos:station:TCOON:006:1,2012-11-02T19:00:00Z,27.8217,-97.2040,0.0,4.7,154.0,5.9,'11111222,11111222,11111222' 
TCOON,ioos:station:TCOON:006:1,2012-11-02T20:00:00Z,27.8217,-97.2040,0.0,4.8,129.0,6.6,'11111222,11111222,11111222' 
TCOON,ioos:station:TCOON:006:1,2012-11-02T21:00:00Z,27.8217,-97.2040,0.0,4.0,124.0,6.1,'11111222,11111222,11111222' 
TCOON,ioos:station:TCOON:006:1,2012-11-02T22:00:00Z,27.8217,-97.2040,0.0,4.4,120.0,6.0,'11111222,11111222,11111222' 
TCOON,ioos:station:TCOON:006:1,2012-11-02T23:00:00Z,27.8217,-97.2040,0.0,3.6,128.0,4.4,'11111222,11111222,11111222' 
TCOON,ioos:station:TCOON:006:1,2012-11-03T00:00:00Z,27.8217,-97.2040,0.0,3.7,129.0,5.0,'11111222,11111222,11111222' 
TCOON,ioos:station:TCOON:006:1,2012-11-03T01:00:00Z,27.8217,-97.2040,0.0,4.3,133.0,5.6,'11111222,11111222,11111222' 
TCOON,ioos:station:TCOON:006:1,2012-11-03T02:00:00Z,27.8217,-97.2040,0.0,3.5,144.0,5.4,'11111222,11111222,11111222' 
TCOON,ioos:station:TCOON:006:1,2012-11-03T03:00:00Z,27.8217,-97.2040,0.0,3.4,142.0,4.4,'11111222,11111222,11111222' 
TCOON,ioos:station:TCOON:006:1,2012-11-03T04:00:00Z,27.8217,-97.2040,0.0,4.1,149.0,5.4,'11111222,11111222,11111222' 
TCOON,ioos:station:TCOON:006:1,2012-11-03T05:00:00Z,27.8217,-97.2040,0.0,3.6,150.0,4.9,'11111222,11111222,11111222' 
TCOON,ioos:station:TCOON:006:1,2012-11-03T06:00:00Z,27.8217,-97.2040,0.0,3.7,149.0,4.9,'11111222,11111222,11111222' 
TCOON,ioos:station:TCOON:006:1,2012-11-03T07:00:00Z,27.8217,-97.2040,0.0,3.0,144.0,4.7,'11111222,11111222,11111222' 
TCOON,ioos:station:TCOON:006:1,2012-11-03T08:00:00Z,27.8217,-97.2040,0.0,2.9,152.0,4.3,'11111222,11111222,11111222' 
TCOON,ioos:station:TCOON:006:1,2012-11-03T09:00:00Z,27.8217,-97.2040,0.0,2.4,147.0,3.8,'11111222,11111222,11111222' 
TCOON,ioos:station:TCOON:006:1,2012-11-03T10:00:00Z,27.8217,-97.2040,0.0,2.1,139.0,3.7,'11111222,11111222,11111222' 
TCOON,ioos:station:TCOON:006:1,2012-11-03T11:00:00Z,27.8217,-97.2040,0.0,1.7,121.0,2.9,'11111222,11111222,11111222' 
TCOON,ioos:station:TCOON:006:1,2012-11-03T12:00:00Z,27.8217,-97.2040,0.0,1.2,136.0,1.7,'11111222,11111222,11111222' 
TCOON,ioos:station:TCOON:006:1,2012-11-03T13:00:00Z,27.8217,-97.2040,0.0,1.4,114.0,2.1,'11111222,11111222,11111222' 
TCOON,ioos:station:TCOON:006:1,2012-11-03T15:00:00Z,27.8217,-97.2040,0.0,5.0,155.0,6.1,'11111222,11111222,11111222' 
TCOON,ioos:station:TCOON:006:1,2012-11-03T16:00:00Z,27.8217,-97.2040,0.0,3.8,153.0,5.0,'11111222,11111222,11111222' 
TCOON,ioos:station:TCOON:006:1,2012-11-03T17:00:00Z,27.8217,-97.2040,0.0,4.7,155.0,5.9,'11111222,11111222,11111222' 
TCOON,ioos:station:TCOON:006:1,2012-11-03T18:00:00Z,27.8217,-97.2040,0.0,4.4,149.0,6.5,'11111222,11111222,11111222' 
TCOON,ioos:station:TCOON:006:1,2012-11-03T19:00:00Z,27.8217,-97.2040,0.0,4.1,144.0,5.5,'11111222,11111222,11111222' 
TCOON,ioos:station:TCOON:006:1,2012-11-03T20:00:00Z,27.8217,-97.2040,0.0,4.6,134.0,6.2,'11111222,11111222,11111222' 
TCOON,ioos:station:TCOON:006:1,2012-11-03T21:00:00Z,27.8217,-97.2040,0.0,6.0,134.0,7.2,'11111222,11111222,11111222' 
TCOON,ioos:station:TCOON:006:1,2012-11-03T22:00:00Z,27.8217,-97.2040,0.0,5.9,131.0,7.4,'11111222,11111222,11111222' 
TCOON,ioos:station:TCOON:006:1,2012-11-03T23:00:00Z,27.8217,-97.2040,0.0,3.8,121.0,5.3,'11111222,11111222,11111222' 
TCOON,ioos:station:TCOON:006:1,2012-11-04T00:00:00Z,27.8217,-97.2040,0.0,2.0,138.0,4.9,'11111222,11111222,11111222' 
TCOON,ioos:station:TCOON:006:1,2012-11-04T01:00:00Z,27.8217,-97.2040,0.0,1.8,1.0,2.9,'11111222,11111222,11111222' 
TCOON,ioos:station:TCOON:006:1,2012-11-04T02:00:00Z,27.8217,-97.2040,0.0,6.7,51.0,10.8,'11111222,11111222,11111222' 
TCOON,ioos:station:TCOON:006:1,2012-11-04T03:00:00Z,27.8217,-97.2040,0.0,2.6,135.0,5.5,'11111222,11111222,11111222' 
TCOON,ioos:station:TCOON:006:1,2012-11-04T04:00:00Z,27.8217,-97.2040,0.0,3.1,117.0,4.5,'11111222,11111222,11111222' 
TCOON,ioos:station:TCOON:006:1,2012-11-04T05:00:00Z,27.8217,-97.2040,0.0,2.3,128.0,3.8,'11111222,11111222,11111222' 
TCOON,ioos:station:TCOON:006:1,2012-11-04T06:00:00Z,27.8217,-97.2040,0.0,1.2,67.0,1.9,'11111222,11111222,11111222' 
TCOON,ioos:station:TCOON:006:1,2012-11-04T07:00:00Z,27.8217,-97.2040,0.0,0.6,13.0,0.9,'11111222,11111222,11111222' 
TCOON,ioos:station:TCOON:006:1,2012-11-04T08:00:00Z,27.8217,-97.2040,0.0,2.5,180.0,2.8,'11111222,11111222,11111222' 
TCOON,ioos:station:TCOON:006:1,2012-11-04T09:00:00Z,27.8217,-97.2040,0.0,2.1,204.0,2.3,'11111222,11111222,11111222' 
TCOON,ioos:station:TCOON:006:1,2012-11-04T10:00:00Z,27.8217,-97.2040,0.0,1.3,200.0,1.5,'11111222,11111222,11111222' 
TCOON,ioos:station:TCOON:006:1,2012-11-04T11:00:00Z,27.8217,-97.2040,0.0,1.2,2.0,1.4,'11111222,11111222,11111222' 
TCOON,ioos:station:TCOON:006:1,2012-11-04T12:00:00Z,27.8217,-97.2040,0.0,2.1,355.0,6.6,'11111222,11111222,11111222' 
TCOON,ioos:station:TCOON:006:1,2012-11-04T13:00:00Z,27.8217,-97.2040,0.0,2.0,27.0,4.0,'11111222,11111222,11111222' 
TCOON,ioos:station:TCOON:006:1,2012-11-04T14:00:00Z,27.8217,-97.2040,0.0,2.3,32.0,4.0,'11111222,11111222,11111222' 
TCOON,ioos:station:TCOON:006:1,2012-11-04T15:00:00Z,27.8217,-97.2040,0.0,2.2,128.0,2.6,'11111222,11111222,11111222' 
TCOON,ioos:station:TCOON:006:1,2012-11-04T16:00:00Z,27.8217,-97.2040,0.0,1.7,109.0,2.1,'11111222,11111222,11111222' 
TCOON,ioos:station:TCOON:006:1,2012-11-04T17:00:00Z,27.8217,-97.2040,0.0,1.6,321.0,2.8,'11111222,11111222,11111222' 
TCOON,ioos:station:TCOON:006:1,2012-11-04T18:00:00Z,27.8217,-97.2040,0.0,1.3,93.0,1.8,'11111222,11111222,11111222' 
TCOON,ioos:station:TCOON:006:1,2012-11-04T19:00:00Z,27.8217,-97.2040,0.0,1.1,89.0,1.6,'11111222,11111222,11111222' 
TCOON,ioos:station:TCOON:006:1,2012-11-04T20:00:00Z,27.8217,-97.2040,0.0,4.1,96.0,5.8,'11111222,11111222,11111222' 
TCOON,ioos:station:TCOON:006:1,2012-11-04T21:00:00Z,27.8217,-97.2040,0.0,2.6,86.0,3.7,'11111222,11111222,11111222' 
TCOON,ioos:station:TCOON:006:1,2012-11-04T22:00:00Z,27.8217,-97.2040,0.0,3.0,102.0,4.1,'11111222,11111222,11111222' 
TCOON,ioos:station:TCOON:006:1,2012-11-04T23:00:00Z,27.8217,-97.2040,0.0,3.3,116.0,4.4,'11111222,11111222,11111222' 
TCOON,ioos:station:TCOON:006:1,2012-11-05T00:00:00Z,27.8217,-97.2040,0.0,1.5,153.0,2.2,'11111222,11111222,11111222' 
TCOON,ioos:station:TCOON:006:1,2012-11-05T01:00:00Z,27.8217,-97.2040,0.0,2.3,158.0,3.3,'11111222,11111222,11111222' 
TCOON,ioos:station:TCOON:006:1,2012-11-05T02:00:00Z,27.8217,-97.2040,0.0,1.8,154.0,2.4,'11111222,11111222,11111222' 
TCOON,ioos:station:TCOON:006:1,2012-11-05T03:00:00Z,27.8217,-97.2040,0.0,1.5,152.0,2.2,'11111222,11111222,11111222' 
TCOON,ioos:station:TCOON:006:1,2012-11-05T04:00:00Z,27.8217,-97.2040,0.0,2.1,166.0,2.5,'11111222,11111222,11111222' 
TCOON,ioos:station:TCOON:006:1,2012-11-05T05:00:00Z,27.8217,-97.2040,0.0,1.1,176.0,1.5,'11111222,11111222,11111222' 
TCOON,ioos:station:TCOON:006:1,2012-11-05T06:00:00Z,27.8217,-97.2040,0.0,1.5,180.0,1.8,'11111222,11111222,11111222' 
TCOON,ioos:station:TCOON:006:1,2012-11-05T07:00:00Z,27.8217,-97.2040,0.0,1.5,227.0,2.1,'11111222,11111222,11111222' 
TCOON,ioos:station:TCOON:006:1,2012-11-05T08:00:00Z,27.8217,-97.2040,0.0,2.0,228.0,2.3,'11111222,11111222,11111222' 
TCOON,ioos:station:TCOON:006:1,2012-11-05T09:00:00Z,27.8217,-97.2040,0.0,2.6,226.0,2.9,'11111222,11111222,11111222' 
TCOON,ioos:station:TCOON:006:1,2012-11-05T10:00:00Z,27.8217,-97.2040,0.0,2.2,259.0,2.4,'11111222,11111222,11111222' 
TCOON,ioos:station:TCOON:006:1,2012-11-05T11:00:00Z,27.8217,-97.2040,0.0,1.6,10.0,2.3,'11111222,11111222,11111222' 
TCOON,ioos:station:TCOON:006:1,2012-11-05T12:00:00Z,27.8217,-97.2040,0.0,1.9,25.0,2.6,'11111222,11111222,11111222' 
TCOON,ioos:station:TCOON:006:1,2012-11-05T13:00:00Z,27.8217,-97.2040,0.0,1.0,13.0,2.1,'11111222,11111222,11111222' 
TCOON,ioos:station:TCOON:006:1,2012-11-05T14:00:00Z,27.8217,-97.2040,0.0,0.7,44.0,1.2,'11111222,11111222,11111222' 
TCOON,ioos:station:TCOON:006:1,2012-11-05T15:00:00Z,27.8217,-97.2040,0.0,0.8,201.0,0.9,'11111222,11111222,11111222' 
TCOON,ioos:station:TCOON:006:1,2012-11-05T16:00:00Z,27.8217,-97.2040,0.0,1.0,190.0,1.3,'11111222,11111222,11111222' 
TCOON,ioos:station:TCOON:006:1,2012-11-05T17:00:00Z,27.8217,-97.2040,0.0,1.4,117.0,1.7,'11111222,11111222,11111222' 
TCOON,ioos:station:TCOON:006:1,2012-11-05T18:00:00Z,27.8217,-97.2040,0.0,2.3,121.0,2.7,'11111222,11111222,11111222' 
TCOON,ioos:station:TCOON:006:1,2012-11-05T19:00:00Z,27.8217,-97.2040,0.0,2.2,130.0,3.7,'11111222,11111222,11111222' 
TCOON,ioos:station:TCOON:006:1,2012-11-05T20:00:00Z,27.8217,-97.2040,0.0,2.5,126.0,3.8,'11111222,11111222,11111222' 
TCOON,ioos:station:TCOON:006:1,2012-11-05T21:00:00Z,27.8217,-97.2040,0.0,3.6,125.0,4.6,'11111222,11111222,11111222' 
TCOON,ioos:station:TCOON:006:1,2012-11-05T22:00:00Z,27.8217,-97.2040,0.0,4.1,127.0,5.3,'11111222,11111222,11111222' 
TCOON,ioos:station:TCOON:006:1,2012-11-05T23:00:00Z,27.8217,-97.2040,0.0,2.9,158.0,3.7,'11111222,11111222,11111222' 
TCOON,ioos:station:TCOON:006:1,2012-11-06T00:00:00Z,27.8217,-97.2040,0.0,3.7,167.0,5.2,'11111222,11111222,11111222' 
TCOON,ioos:station:TCOON:006:1,2012-11-06T01:00:00Z,27.8217,-97.2040,0.0,4.3,168.0,5.0,'11111222,11111222,11111222' 
TCOON,ioos:station:TCOON:006:1,2012-11-06T02:00:00Z,27.8217,-97.2040,0.0,4.3,170.0,5.2,'11111222,11111222,11111222' 
TCOON,ioos:station:TCOON:006:1,2012-11-06T03:00:00Z,27.8217,-97.2040,0.0,4.2,182.0,5.2,'11111222,11111222,11111222' 
TCOON,ioos:station:TCOON:006:1,2012-11-06T04:00:00Z,27.8217,-97.2040,0.0,4.3,192.0,5.2,'11111222,11111222,11111222' 
TCOON,ioos:station:TCOON:006:1,2012-11-06T05:00:00Z,27.8217,-97.2040,0.0,1.6,226.0,3.0,'11111222,11111222,11111222' 
TCOON,ioos:station:TCOON:006:1,2012-11-06T06:00:00Z,27.8217,-97.2040,0.0,2.5,220.0,3.7,'11111222,11111222,11111222' 
TCOON,ioos:station:TCOON:006:1,2012-11-06T07:00:00Z,27.8217,-97.2040,0.0,7.3,319.0,10.7,'11111222,11111222,11111222' 
TCOON,ioos:station:TCOON:006:1,2012-11-06T08:00:00Z,27.8217,-97.2040,0.0,0.8,27.0,3.0,'11111222,11111222,11111222' 
TCOON,ioos:station:TCOON:006:1,2012-11-06T09:00:00Z,27.8217,-97.2040,0.0,2.7,48.0,4.2,'11111222,11111222,11111222' 
TCOON,ioos:station:TCOON:006:1,2012-11-06T10:00:00Z,27.8217,-97.2040,0.0,5.2,47.0,8.3,'11111222,11111222,11111222' 
TCOON,ioos:station:TCOON:006:1,2012-11-06T11:00:00Z,27.8217,-97.2040,0.0,4.6,50.0,7.1,'11111222,11111222,11111222' 
TCOON,ioos:station:TCOON:006:1,2012-11-06T12:00:00Z,27.8217,-97.2040,0.0,4.7,43.0,7.2,'11111222,11111222,11111222' 
TCOON,ioos:station:TCOON:006:1,2012-11-06T13:00:00Z,27.8217,-97.2040,0.0,5.3,44.0,7.5,'11111222,11111222,11111222' 
TCOON,ioos:station:TCOON:006:1,2012-11-06T14:00:00Z,27.8217,-97.2040,0.0,3.6,51.0,7.2,'11111222,11111222,11111222' 
TCOON,ioos:station:TCOON:006:1,2012-11-06T15:00:00Z,27.8217,-97.2040,0.0,3.3,58.0,5.5,'11111222,11111222,11111222' 
TCOON,ioos:station:TCOON:006:1,2012-11-06T16:00:00Z,27.8217,-97.2040,0.0,4.2,35.0,6.1,'11111222,11111222,11111222' 
TCOON,ioos:station:TCOON:006:1,2012-11-06T17:00:00Z,27.8217,-97.2040,0.0,3.0,51.0,5.9,'11111222,11111222,11111222' 
TCOON,ioos:station:TCOON:006:1,2012-11-06T18:00:00Z,27.8217,-97.2040,0.0,3.7,53.0,5.9,'11111222,11111222,11111222' 
TCOON,ioos:station:TCOON:006:1,2012-11-06T19:00:00Z,27.8217,-97.2040,0.0,3.7,57.0,5.6,'11111222,11111222,11111222' 
TCOON,ioos:station:TCOON:006:1,2012-11-06T20:00:00Z,27.8217,-97.2040,0.0,3.2,76.0,4.8,'11111222,11111222,11111222' 
TCOON,ioos:station:TCOON:006:1,2012-11-06T21:00:00Z,27.8217,-97.2040,0.0,3.0,84.0,4.2,'11111222,11111222,11111222' 
TCOON,ioos:station:TCOON:006:1,2012-11-06T22:00:00Z,27.8217,-97.2040,0.0,2.3,115.0,3.3,'11111222,11111222,11111222' 
TCOON,ioos:station:TCOON:006:1,2012-11-06T23:00:00Z,27.8217,-97.2040,0.0,1.8,96.0,3.1,'11111222,11111222,11111222' 
TCOON,ioos:station:TCOON:006:1,2012-11-07T00:00:00Z,27.8217,-97.2040,0.0,1.8,128.0,2.7,'11111222,11111222,11111222' 
TCOON,ioos:station:TCOON:006:1,2012-11-07T01:00:00Z,27.8217,-97.2040,0.0,2.1,126.0,3.0,'11111222,11111222,11111222' 
TCOON,ioos:station:TCOON:006:1,2012-11-07T02:00:00Z,27.8217,-97.2040,0.0,1.9,118.0,2.9,'11111222,11111222,11111222' 
TCOON,ioos:station:TCOON:006:1,2012-11-07T03:00:00Z,27.8217,-97.2040,0.0,2.4,137.0,3.5,'11111222,11111222,11111222' 
TCOON,ioos:station:TCOON:006:1,2012-11-07T04:00:00Z,27.8217,-97.2040,0.0,2.5,134.0,3.1,'11111222,11111222,11111222' 
TCOON,ioos:station:TCOON:006:1,2012-11-07T05:00:00Z,27.8217,-97.2040,0.0,2.0,147.0,2.7,'11111222,11111222,11111222' 
TCOON,ioos:station:TCOON:006:1,2012-11-07T06:00:00Z,27.8217,-97.2040,0.0,0.7,93.0,1.8,'11111222,11111222,11111222' 
TCOON,ioos:station:TCOON:006:1,2012-11-07T07:00:00Z,27.8217,-97.2040,0.0,1.5,155.0,2.2,'11111222,11111222,11111222' 
TCOON,ioos:station:TCOON:006:1,2012-11-07T08:00:00Z,27.8217,-97.2040,0.0,1.4,176.0,1.7,'11111222,11111222,11111222' 
TCOON,ioos:station:TCOON:006:1,2012-11-07T09:00:00Z,27.8217,-97.2040,0.0,1.6,187.0,1.9,'11111222,11111222,11111222' 
TCOON,ioos:station:TCOON:006:1,2012-11-07T10:00:00Z,27.8217,-97.2040,0.0,3.0,241.0,3.3,'11111222,11111222,11111222' 
TCOON,ioos:station:TCOON:006:1,2012-11-07T11:00:00Z,27.8217,-97.2040,0.0,1.5,345.0,3.1,'11111222,11111222,11111222' 
TCOON,ioos:station:TCOON:006:1,2012-11-07T12:00:00Z,27.8217,-97.2040,0.0,2.4,326.0,3.2,'11111222,11111222,11111222' 
TCOON,ioos:station:TCOON:006:1,2012-11-07T13:00:00Z,27.8217,-97.2040,0.0,1.6,314.0,2.1,'11111222,11111222,11111222' 
TCOON,ioos:station:TCOON:006:1,2012-11-07T14:00:00Z,27.8217,-97.2040,0.0,1.9,317.0,2.9,'11111222,11111222,11111222' 
TCOON,ioos:station:TCOON:006:1,2012-11-07T15:00:00Z,27.8217,-97.2040,0.0,1.4,261.0,2.4,'11111222,11111222,11111222' 
TCOON,ioos:station:TCOON:006:1,2012-11-07T16:00:00Z,27.8217,-97.2040,0.0,1.8,245.0,2.5,'11111222,11111222,11111222' 
TCOON,ioos:station:TCOON:006:1,2012-11-07T17:00:00Z,27.8217,-97.2040,0.0,1.2,115.0,1.4,'11111222,11111222,11111222' 
TCOON,ioos:station:TCOON:006:1,2012-11-07T18:00:00Z,27.8217,-97.2040,0.0,1.7,111.0,2.3,'11111222,11111222,11111222' 
TCOON,ioos:station:TCOON:006:1,2012-11-07T19:00:00Z,27.8217,-97.2040,0.0,3.2,122.0,4.7,'11111222,11111222,11111222' 
TCOON,ioos:station:TCOON:006:1,2012-11-07T20:00:00Z,27.8217,-97.2040,0.0,3.9,124.0,5.3,'11111222,11111222,11111222' 
TCOON,ioos:station:TCOON:006:1,2012-11-07T21:00:00Z,27.8217,-97.2040,0.0,4.8,119.0,6.8,'11111222,11111222,11111222' 
TCOON,ioos:station:TCOON:006:1,2012-11-07T22:00:00Z,27.8217,-97.2040,0.0,4.2,125.0,6.2,'11111222,11111222,11111222' 
TCOON,ioos:station:TCOON:006:1,2012-11-07T23:00:00Z,27.8217,-97.2040,0.0,5.5,130.0,7.0,'11111222,11111222,11111222' 
TCOON,ioos:station:TCOON:006:1,2012-11-08T00:00:00Z,27.8217,-97.2040,0.0,5.3,127.0,7.3,'11111222,11111222,11111222' 
TCOON,ioos:station:TCOON:006:1,2012-11-08T01:00:00Z,27.8217,-97.2040,0.0,3.2,130.0,6.3,'11111222,11111222,11111222' 
TCOON,ioos:station:TCOON:006:1,2012-11-08T02:00:00Z,27.8217,-97.2040,0.0,3.0,133.0,5.6,'11111222,11111222,11111222' 
TCOON,ioos:station:TCOON:006:1,2012-11-08T03:00:00Z,27.8217,-97.2040,0.0,2.2,151.0,3.8,'11111222,11111222,11111222' 
TCOON,ioos:station:TCOON:006:1,2012-11-08T04:00:00Z,27.8217,-97.2040,0.0,3.8,158.0,4.7,'11111222,11111222,11111222' 
TCOON,ioos:station:TCOON:006:1,2012-11-08T05:00:00Z,27.8217,-97.2040,0.0,5.0,159.0,5.8,'11111222,11111222,11111222' 
TCOON,ioos:station:TCOON:006:1,2012-11-08T06:00:00Z,27.8217,-97.2040,0.0,4.9,160.0,6.2,'11111222,11111222,11111222' 
TCOON,ioos:station:TCOON:006:1,2012-11-08T08:00:00Z,27.8217,-97.2040,0.0,5.5,168.0,6.5,'11111222,11111222,11111222' 
TCOON,ioos:station:TCOON:006:1,2012-11-08T09:00:00Z,27.8217,-97.2040,0.0,5.3,167.0,7.0,'11111222,11111222,11111222' 
TCOON,ioos:station:TCOON:006:1,2012-11-08T10:00:00Z,27.8217,-97.2040,0.0,5.9,169.0,6.9,'11111222,11111222,11111222' 
TCOON,ioos:station:TCOON:006:1,2012-11-08T11:00:00Z,27.8217,-97.2040,0.0,4.2,172.0,4.9,'11111222,11111222,11111222' 
TCOON,ioos:station:TCOON:006:1,2012-11-08T12:00:00Z,27.8217,-97.2040,0.0,3.7,195.0,5.3,'11111222,11111222,11111222' 
TCOON,ioos:station:TCOON:006:1,2012-11-08T13:00:00Z,27.8217,-97.2040,0.0,3.8,174.0,5.0,'11111222,11111222,11111222' 
TCOON,ioos:station:TCOON:006:1,2012-11-08T14:00:00Z,27.8217,-97.2040,0.0,4.8,162.0,5.5,'11111222,11111222,11111222' 
TCOON,ioos:station:TCOON:006:1,2012-11-08T15:00:00Z,27.8217,-97.2040,0.0,6.0,167.0,8.0,'11111222,11111222,11111222' 
TCOON,ioos:station:TCOON:006:1,2012-11-08T16:00:00Z,27.8217,-97.2040,0.0,6.6,160.0,9.5,'11111222,11111222,11111222' 
TCOON,ioos:station:TCOON:006:1,2012-11-08T17:00:00Z,27.8217,-97.2040,0.0,6.9,157.0,8.9,'11111222,11111222,11111222' 
TCOON,ioos:station:TCOON:006:1,2012-11-08T18:00:00Z,27.8217,-97.2040,0.0,5.7,157.0,8.6,'11111222,11111222,11111222' 
TCOON,ioos:station:TCOON:006:1,2012-11-08T19:00:00Z,27.8217,-97.2040,0.0,5.5,157.0,8.0,'11111222,11111222,11111222' 
TCOON,ioos:station:TCOON:006:1,2012-11-08T20:00:00Z,27.8217,-97.2040,0.0,4.0,147.0,5.6,'11111222,11111222,11111222' 
TCOON,ioos:station:TCOON:006:1,2012-11-08T21:00:00Z,27.8217,-97.2040,0.0,4.2,141.0,7.2,'11111222,11111222,11111222' 
TCOON,ioos:station:TCOON:006:1,2012-11-08T22:00:00Z,27.8217,-97.2040,0.0,5.2,135.0,8.1,'11111222,11111222,11111222' 
TCOON,ioos:station:TCOON:006:1,2012-11-08T23:00:00Z,27.8217,-97.2040,0.0,3.9,144.0,6.6,'11111222,11111222,11111222' 
TCOON,ioos:station:TCOON:006:1,2012-11-09T00:00:00Z,27.8217,-97.2040,0.0,4.2,147.0,6.6,'11111222,11111222,11111222' 
TCOON,ioos:station:TCOON:006:1,2012-11-09T01:00:00Z,27.8217,-97.2040,0.0,4.4,153.0,6.2,'11111222,11111222,11111222' 
TCOON,ioos:station:TCOON:006:1,2012-11-09T02:00:00Z,27.8217,-97.2040,0.0,6.8,150.0,9.3,'11111222,11111222,11111222' 
TCOON,ioos:station:TCOON:006:1,2012-11-09T03:00:00Z,27.8217,-97.2040,0.0,7.3,151.0,9.5,'11111222,11111222,11111222' 
TCOON,ioos:station:TCOON:006:1,2012-11-09T04:00:00Z,27.8217,-97.2040,0.0,7.2,151.0,9.5,'11111222,11111222,11111222' 
TCOON,ioos:station:TCOON:006:1,2012-11-09T05:00:00Z,27.8217,-97.2040,0.0,7.3,151.0,9.2,'11111222,11111222,11111222' 
TCOON,ioos:station:TCOON:006:1,2012-11-09T06:00:00Z,27.8217,-97.2040,0.0,7.8,150.0,10.8,'11111222,11111222,11111222' 
TCOON,ioos:station:TCOON:006:1,2012-11-09T07:00:00Z,27.8217,-97.2040,0.0,7.0,155.0,9.6,'11111222,11111222,11111222' 
TCOON,ioos:station:TCOON:006:1,2012-11-09T08:00:00Z,27.8217,-97.2040,0.0,5.9,155.0,7.2,'11111222,11111222,11111222' 
TCOON,ioos:station:TCOON:006:1,2012-11-09T09:00:00Z,27.8217,-97.2040,0.0,7.2,157.0,9.3,'11111222,11111222,11111222' 
TCOON,ioos:station:TCOON:006:1,2012-11-09T10:00:00Z,27.8217,-97.2040,0.0,6.3,158.0,8.0,'11111222,11111222,11111222' 
TCOON,ioos:station:TCOON:006:1,2012-11-09T11:00:00Z,27.8217,-97.2040,0.0,6.9,153.0,8.5,'11111222,11111222,11111222' 
TCOON,ioos:station:TCOON:006:1,2012-11-09T12:00:00Z,27.8217,-97.2040,0.0,8.0,152.0,11.1,'11111222,11111222,11111222' 
TCOON,ioos:station:TCOON:006:1,2012-11-09T13:00:00Z,27.8217,-97.2040,0.0,7.7,152.0,9.5,'11111222,11111222,11111222' 
TCOON,ioos:station:TCOON:006:1,2012-11-09T14:00:00Z,27.8217,-97.2040,0.0,7.0,152.0,9.5,'11111222,11111222,11111222' 
TCOON,ioos:station:TCOON:006:1,2012-11-09T15:00:00Z,27.8217,-97.2040,0.0,6.7,153.0,9.4,'11111222,11111222,11111222' 